Lahr, Germany

7:36 PM CET on November 14, 2019 (GMT +0100)
Lahr

Weather History for EDTL - October, 2019

Change the Weather History Date:

Wednesday, October 23, 2019

  Actual Average (LFST) Record (LFST)
Temperature  
Mean Temperature 52 °F -  
Max Temperature 54 °F 57 °F 71 °F (2004)
Min Temperature 51 °F 42 °F 30 °F (2011)
Degree Days  
Heating Degree Days 12    
Growing Degree Days 2 (Base 50)    
Moisture  
Dew Point 53 °F    
Average Humidity 99    
Maximum Humidity 100    
Minimum Humidity 89    
Precipitation  
Precipitation 0.00 in - - ()
Sea Level Pressure  
Sea Level Pressure 29.96 in    
Wind  
Wind Speed 3 mph ()    
Max Wind Speed 7 mph    
Max Gust Speed -    
Visibility 1.5 miles    
Events Fog , Rain    
Averages and records for this station are not official NWS values.
T = Trace of Precipitation, MM = Missing Value Source: Averaged Metar Reports

Daily Weather History Graph

Daily Weather History Graph

Search for Another Location

Airport or City:

Astronomy

Oct. 23, 2019 Rise Set
Actual Time 7:59 AM CEST 6:25 PM CEST
Civil Twilight 7:27 AM CEST 6:57 PM CEST
Nautical Twilight 6:51 AM CEST 7:33 PM CEST
Astronomical Twilight 6:15 AM CEST 8:09 PM CEST
Moon 1:22 AM CEST (10/23) 4:37 PM CEST (10/23)
Length of Visible Light 11h 29m
Length of Day
10h 25m
Waning Crescent, 29% of the Moon is Illuminated
Oct 23
Waning Crescent
Oct 28
New
Nov 4
First Quarter
Nov 12
Full
Nov 19
Last Quarter

Hourly Weather History & Observations

Time (CEST) Temp. Dew Point Humidity Pressure Visibility Wind Dir Wind Speed Gust Speed Precip Events Conditions
1:00 AM 52 °F 51 °F 97% 30.13 in 0 mi South 2.2 mph - - Fog Fog
4:00 AM 52 °F 52 °F 100% 30.07 in 0 mi West 2.2 mph - - Fog Fog
6:00 AM 52 °F 52 °F 99% 30.05 in 0 mi NW 2.2 mph - - Fog Fog
7:00 AM 52 °F 52 °F 100% 30.04 in 0 mi NE 2.2 mph - - Fog Fog
7:50 AM 51.8 °F 51.8 °F 100% 30.01 in 0.6 mi NE 4.6 mph - N/A Fog Fog
8:20 AM 51.8 °F 51.8 °F 100% 30.01 in 0.4 mi Variable 2.3 mph - N/A Fog Fog
8:50 AM 51.8 °F 51.8 °F 100% 30.01 in 0.4 mi ENE 5.8 mph - N/A Fog Fog
9:00 AM 52 °F 52 °F 99% 30.01 in 0 mi ENE 4.5 mph - - Fog Fog
9:20 AM 51.8 °F 51.8 °F 100% 30.01 in 2.5 mi NNE 3.5 mph - N/A   Overcast
9:50 AM 51.8 °F 51.8 °F 100% 30.01 in 0.9 mi NE 2.3 mph - N/A   Overcast
10:20 AM 51.8 °F 51.8 °F 100% 30.01 in 0.5 mi Variable 2.3 mph - N/A Fog Fog
10:50 AM 51.8 °F 51.8 °F 100% 30.01 in 1.2 mi NE 4.6 mph - N/A   Overcast
11:20 AM 51.8 °F 51.8 °F 100% 30.01 in 1.2 mi NNE 5.8 mph - N/A   Mostly Cloudy
11:50 AM 51.8 °F 51.8 °F 100% 30.01 in 0.9 mi Variable 2.3 mph - N/A   Mostly Cloudy
12:20 PM 51.8 °F 51.8 °F 100% 29.98 in 1.2 mi Variable 2.3 mph - N/A   Overcast
12:50 PM 53.6 °F 53.6 °F 100% 29.98 in 1.9 mi Variable 1.2 mph - N/A   Overcast
1:20 PM 53.6 °F 53.6 °F 100% 29.98 in 2.2 mi Variable 2.3 mph - N/A   Overcast
1:50 PM 53.6 °F 53.6 °F 100% 29.95 in 2.2 mi Variable 3.5 mph - N/A   Overcast
2:20 PM 53.6 °F 53.6 °F 100% 29.95 in 1.9 mi North 5.8 mph - N/A   Overcast
2:50 PM 53.6 °F 53.6 °F 100% 29.95 in 1.9 mi North 5.8 mph - N/A   Mostly Cloudy
3:00 PM 53 °F 52 °F 95% 29.95 in 3 mi North 6.7 mph - - Rain Drizzle
3:20 PM 53.6 °F 53.6 °F 100% 29.92 in 1.9 mi North 3.5 mph - N/A   Mostly Cloudy
3:50 PM 53.6 °F 53.6 °F 100% 29.92 in 1.9 mi North 3.5 mph - N/A   Mostly Cloudy
4:00 PM 54 °F 52 °F 89% 29.92 in 4 mi North 4.5 mph - -   Mist
4:20 PM 53.6 °F 53.6 °F 100% 29.89 in 1.9 mi Variable 3.5 mph - N/A   Mostly Cloudy
4:50 PM 53.6 °F 53.6 °F 100% 29.89 in 2.5 mi Variable 1.2 mph - N/A   Mostly Cloudy
5:20 PM 53.6 °F 53.6 °F 100% 29.89 in 2.5 mi Calm Calm - N/A   Mostly Cloudy
5:50 PM 53.6 °F 53.6 °F 100% 29.89 in 2.5 mi Variable 2.3 mph - N/A   Mostly Cloudy
6:00 PM 54 °F 52 °F 92% 29.89 in 3 mi SSW 2.2 mph - -   Mist
6:20 PM 53.6 °F 53.6 °F 100% 29.89 in 2.5 mi Variable 2.3 mph - N/A   Mostly Cloudy
6:50 PM 53.6 °F 53.6 °F 100% 29.86 in 2.5 mi Variable 2.3 mph - N/A   Mostly Cloudy
7:20 PM 53.6 °F 53.6 °F 100% 29.86 in 1.2 mi SW 3.5 mph - N/A   Mostly Cloudy
7:50 PM 53.6 °F 53.6 °F 100% 29.86 in 1.6 mi Variable 2.3 mph - N/A   Mostly Cloudy
9:00 PM 54 °F 53 °F 96% 29.86 in 0 mi SW 4.5 mph - - Fog Fog